www.pogodaiklimat.ru

Погода и климат >> Архив погоды >> Россия >> Свердловская область >> Ирбит


ПОГОДА в Ирбите

  • Прогноз погоды в Ирбите
  • Монитор погоды в Ирбите
  • Климат города

АРХИВ ПОГОДЫ в Ирбите

Время (UTC), дата Ветер
(напр.,м/с)
 
Видим.   Явления Облачность Т
(С)
Тd
(С)
f
(%)
Тe
(С)
Тes
(С)
Комфортность P
(гПа)
Po
(гПа)
Тmin
(С)
Tmax
(С)
R
(мм)
R24
(мм)
S
(см)
21 12.10 Ю 2 н/о н/о +6.3 -1.2 59 +4 +4 1021.8 1012.6
00 13.10 В 1 50 км 8/0
[Ac trans Ci sp]
+1.9 -1.8 76 0 0 1020.9 1011.6
03 13.10 В 1 50 км 10/0
[Cs]
+0.6 -1.7 85 -1 -1 1020.1 1010.7 +0.4
06 13.10 ЮВ 2 50 км 9/0
[Cs]
+6.3 +0.2 65 +4 +6 1019.8 1010.6
09 13.10 ЮВ 3 50 км 9/0
[Cs]
+10.7 +0.2 48 +9 +11 1018.2 1009.2
12 13.10 ЮВ 2 50 км 8/0
[Ci sp]
+10.8 +1.0 51 +10 +10 1017.5 1008.5
15 13.10 Ю 2 50 км 4/0
[Ci sp]
+5.0 +0.1 71 +3 +3 1017.6 1008.4 +11.7
18 13.10 В 1 50 км 9/3 600 м
[Sc Ci sp]
+3.8 +0.5 79 +2 +2 1017.1 1007.9
21 13.10 В 3 50 км 4/1 600 м
[Sc Ci sp]
+2.5 -0.2 82 -2 -2 1016.5 1007.2
00 14.10 В 3 50 км 8/8 600 м
[Sc Ci fib]
+2.0 -0.2 85 -2 -2 1015.9 1006.6
03 14.10 штиль 0 20 км 9/6 600 м
[Sc Ac trans Ci fib]
+1.7 -0.1 88 +1 +1 1016.0 1006.7 +0.6
06 14.10 штиль 0 20 км 9/0
[Ac As Cc]
+7.0 +1.7 69 +6 +8 1016.0 1006.8
09 14.10 ЮЗ 1 50 км 8/0
[Ac trans Cs]
+11.7 +0.7 47 +12 +15 1014.8 1005.8
12 14.10 С 2 20 км 6/0
[Ac trans]
+10.6 +0.7 50 +10 +10 1014.4 1005.4
15 14.10 штиль 0 30 км 6/0
[Ac trans Ci fib]
+7.5 +0.7 62 +7 +7 1015.2 1006.1 +12.6
18 14.10 штиль 0 20 км 3/0
[Ci fib]
+2.0 0.0 87 +1 +1 1015.1 1005.8
21 14.10 ЮЗ 1 1500 м дымка ясно -1.2 -2.1 94 -3 -3 1014.8 1005.4
00 15.10 ЮЗ 1 1500 м туман на расстоянии ясно -2.4 -3.1 95 -5 -5 1014.7 1005.3
03 15.10 ЮЗ 1 2200 м дымка 10/0
[Ci fib]
-3.1 -3.9 94 -6 -6 1015.0 1005.5 -3.7
06 15.10 штиль 0 7000 м дымка ясно +4.0 +1.3 83 +3 +6 1014.4 1005.2
09 15.10 СВ 1 50 км ясно +10.3 +0.4 50 +10 +13 1013.5 1004.5
12 15.10 ЮВ 1 50 км 8/0
[Ci sp]
+9.3 +0.3 53 +9 +9 1013.2 1004.2
15 15.10 В 4 3000 м дымка 6/0
[Ci sp]
+3.2 -0.2 78 -1 -1 1013.8 1004.6 +10.9
18 15.10 В 2 7000 м дымка ясно +1.0 -1.4 84 -2 -2 1014.6 1005.3
21 15.10 В 2 8000 м дымка ясно -0.4 -1.6 92 -4 -4 1014.7 1005.3
00 16.10 В 5 20 км 6/0
[Ci sp]
-0.5 -2.3 88 -7 -7 1015.3 1005.9
03 16.10 В 2 20 км 6/3 600 м
[Sc Ac trans Ci sp]
-1.6 -3.1 89 -6 -6 1016.6 1007.2 -1.8
06 16.10 В 3 50 км 10/0
[Ac trans Cs]
+5.0 -0.8 66 +2 +3 1017.1 1007.9
09 16.10 ЮВ 4 50 км 9/0
[Ac trans Cc]
+9.5 -2.3 43 +7 +9 1017.4 1008.3
12 16.10 В 4 50 км 10/0
[Ac trans Cs]
+7.7 -2.3 49 +5 +5 1017.6 1008.5
15 16.10 В 3 50 км 10/0
[Cs]
+4.3 -3.7 56 +1 +1 1018.6 1009.4 +10.1
18 16.10 В 3 50 км 10/0
[Cs]
+2.8 -4.1 60 -1 -1 1018.8 1009.5
21 16.10 В 3 50 км 9/0
[Cs]
+1.1 -4.1 68 -3 -3 1018.2 1008.9
00 17.10 В 3 50 км 9/0
[Ac trans Cs]
+0.4 -3.8 73 -4 -4 1017.1 1007.7
03 17.10 В 2 50 км 9/0
[Ac trans Cs]
-0.8 -3.4 83 -5 -5 1016.0 1006.7 -0.8
06 17.10 В 4 50 км 9/0
[Ci sp]
+4.6 -1.0 67 +1 +2 1014.8 1005.6
09 17.10 ЮВ 4 50 км 3/0
[Ci sp]
+11.9 -0.2 43 +10 +12 1011.8 1002.9
12 17.10 ЮВ 3 50 км 9/0
[Ac trans Ci]
+10.1 -0.6 47 +8 +9 1010.0 1001.0
15 17.10 ЮВ 3 50 км 6/0
[Ac trans Ci sp]
+6.8 +0.3 63 +4 +4 1009.0 999.9 +13.1
18 17.10 ЮВ 4 50 км в посл. час дождь 9/8 600 м
[Sc Ac trans Ci sp]
+7.5 +2.0 68 +4 +4 1006.7 997.7
21 17.10 ЮВ 4 50 км 10/10 600 м
[Sc]
+6.5 +2.0 73 +3 +3 1004.6 995.6
00 18.10 ЮВ 2 50 км 10/10 600 м
[Sc]
+5.7 +2.0 77 +3 +3 1003.6 994.6
03 18.10 Ю 2 20 км слабый дождь 10/8 600 м
[Sc Ac As]
+4.4 +2.8 89 +2 +2 1003.2 994.1 +4.4 0.6
06 18.10 Ю 2 6000 м слабый дождь 10/10 300 м
[Frnb]
+5.2 +3.8 91 +3 +3 1002.7 993.6 +4.3
09 18.10 ЮЗ 2 20 км слабый дождь 10/10 600 м
[Sc]
+5.7 +4.4 91 +3 +3 1002.4 993.3
12 18.10 ЮЗ 1 6000 м дымка {дождь} 10/10 600 м
[Sc]
+6.2 +5.2 93 +5 +5 1002.2 993.2
15 18.10 З 2 30 км в посл. час туман 8/4 600 м
[Sc Ac trans]
+4.3 +1.3 81 +2 +2 1003.8 994.7 +6.2 3
18 18.10 ЮЗ 2 30 км {туман} 9/0
[Ac trans Ci fib]
+1.8 -0.4 85 -2 -2 1003.6 994.4
21 18.10 З 2 30 км 6/0
[Ac trans Ci fib]
+0.5 -1.0 90 -3 -3 1002.9 993.7
00 19.10 ЮЗ 1 30 км ясно -0.8 -1.8 93 -3 -3 1002.2 992.9
03 19.10 Ю 2 20 км туман поземный 10/4 1000 м
[Sc Ac trans Ci fib]
-1.0 -1.8 94 -5 -5 1001.8 992.5 -1.9
06 19.10 ЮЗ 3 50 км 8/6 600 м
[Sc Ac trans]
+4.1 +0.4 77 +1 +1 1000.3 991.2
09 19.10 Ю 4 50 км 8/8 600 м
[Sc Ac As]
+6.6 +1.7 71 +3 +3 998.4 989.4
12 19.10 Ю 3 50 км {дождь} 9/8 600 м
[Sc Ac trans]
+6.5 +1.9 72 +4 +4 996.8 987.8
15 19.10 Ю 5-10
{11}
20 км слабый дождь 10/10 600 м
[Sc]
+7.0 +2.2 71 +3 +3 994.6 985.7 +7.1 0.3

 

Местоположение метеостанции Ирбит (Свердловская область, Россия): широта 57.62 долгота 62.97 высота над уровнем моря 74 м.

В архиве по умолчанию представлена погода в Ирбите за последнюю неделю. Архивные данные за месяц целиком и за предыдущие месяцы, начиная с января 2011 года, Вы можете получить, выбрав интересующий диапазон дат из раскрывающегося списка и нажав кнопку "Ввод!".

Внимание! Время в таблицах - всемирное. Для получения местного времени необходимо прибавить поправку, которая в Ирбите равна 5 ч.

Смотрите также архив погоды в соседних городах и на ближайших метеорологических станциях:

Погода в Туринске (Свердловская область, Россия) (64 км)
Погода в Артемовском (Свердловская область, Россия) (69 км)
Погода в Алапаевске (Свердловская область, Россия) (80 км)
Погода в Камышлове (Свердловская область, Россия) (87 км)
Погода в Тугулыме (Свердловская область, Россия) (119 км)
Погода в Таборах (Свердловская область, Россия) (135 км)
Погода в Тавде (Свердловская область, Россия) (145 км)
Погода в Каменск-Уральском (Свердловская область, Россия) (148 км)
Погода в Далматово (Курганская область, Россия) (150 км)
Погода в Верхнем Дуброво (Свердловская область, Россия) (151 км)

Пояснения к столбцам:

Ветер - указаны скорость ветра в м/с - средняя за 10 мин, порывы в срок и между сроками (в фигурных скобках) и направление, откуда дует ветер: С - северный, СВ - северо-восточный, В - восточный, ЮВ - юго-восточный, Ю - южный, ЮЗ - юго-западный, З - западный, СЗ - северо-западный.
Видимость - горизонтальная дальность видимости в метрах или километрах. При видимости от 1 до 10 км при отсутствии осадков обычно наблюдается дымка, при ухудшении видимости до 1 км и менее - туман. В сухую погоду видимость может ухудшаться дымом, пылью или мглою.
Явления - указаны атмосферные явления, наблюдавшиеся в срок или в последний час перед сроком; фигурными скобками обозначены явления, наблюдавшиеся между сроками (за 1-3 часа до срока); квадратными скобками обозначены град или гололедные отложения с указанием их диаметра в мм.
Облачность - указаны через наклонную черту общая и нижняя облачность в баллах и высота нижней границы облаков в метрах; квадратными скобками обозначены формы облаков: Ci - перистые, Cs - перисто-слоистые, Cc - перисто-кучевые, Ac - высококучевые, As - высокослоистые, Sc - слоисто-кучевые, Ns - слоисто-дождевые, Cu - кучевые, Cb - кучево-дождевые. Подробнее классификацию облаков см. в Атласе облаков (PDF).
T - Температура воздуха - температура, измеренная на высоте 2 м над землей.
Td - Температура точки росы - температура, при понижении до которой содержащийся в воздухе водяной пар достигнет насыщения.
f - Относительная влажность воздуха - влажноcть воздуха, измеренная на высоте 2 м над землей.
Te - Эффективная температура - температура, которую ощущает одетый по сезону человек в тени. Характеристика душности погоды. При расчете учитывается влияние влажности воздуха и скорости ветра на теплоощущения человека.
Tes - Эффективная температура на солнце - температура, которую ощущает человек, с поправкой на солнечный нагрев. Характеристика знойности погоды. Зависит от высоты солнца над горизонтом, облачности и скорости ветра. Ночью, в пасмурную погоду, а также при ветре 12 м/с и более поправка равна нулю.
P - Атмосферное давление - приведенное к уровню моря атмосферное давление.
Po - Атмосферное давление - измеренное на уровне метеостанции атмосферное давление.
Tmin - Минимальная температура - минимум температуры воздуха на высоте 2 м над землей.
Tmax - Максимальная температура - максимум температуры воздуха на высоте 2 м над землей.
R - Количество осадков - Количество выпавших осадков за период времени, мм. При наведении курсора мыши на число - период времени, за который выпало указанное количество осадков.
R24 - Количество осадков - Количество выпавших осадков за 24 часа, мм.
S - Снежный покров - Высота снежного покрова, см. При наведении курсора мыши на число - состояние снежного покрова и степень покрытия местности в баллах.